This is the latest recevied weather packets stored in our database for station/object EA1GHG-11. If no packets are shown the sender has not sent any weather packets the latest 10 day(s).
| Time | Temp. | Humidity | Pressure | Rain* | Wind** | Luminosity | Snow |
|---|---|---|---|---|---|---|---|
| 1777989718 | 13.33° C | 100% | 1019.2 hPa | - | - | - | - |
| 1777988218 | 14.44° C | 100% | 1019.2 hPa | - | - | - | - |
| 1777986853 | 13.89° C | 100% | 1019 hPa | - | - | - | - |
| 1777986718 | 13.89° C | 100% | 1019 hPa | - | - | - | - |
| 1777985218 | 17.22° C | 100% | 1018.9 hPa | - | - | - | - |
| 1777983717 | 17.22° C | 100% | 1019 hPa | - | - | - | - |
| 1777983120 | 17.78° C | 100% | 1019 hPa | - | - | - | - |
| 1777981620 | 16.11° C | 100% | 1019.2 hPa | - | - | - | - |
| 1777980120 | 15.56° C | 100% | 1019.4 hPa | - | - | - | - |
| 1777978620 | 15° C | 100% | 1019.3 hPa | - | - | - | - |
| 1777977120 | 15° C | 100% | 1019.5 hPa | - | - | - | - |
| 1777975619 | 15.56° C | 100% | 1019.5 hPa | - | - | - | - |
| 1777974119 | 15° C | 100% | 1019.4 hPa | - | - | - | - |
| 1777972619 | 12.78° C | 100% | 1019.4 hPa | - | - | - | - |
| 1777971119 | 13.33° C | 100% | 1019.4 hPa | - | - | - | - |
| 1777969619 | 12.78° C | 100% | 1019.6 hPa | - | - | - | - |
| 1777968119 | 11.11° C | 100% | 1019.7 hPa | - | - | - | - |
| 1777966619 | 10° C | 100% | 1019.8 hPa | - | - | - | - |
| 1777965119 | 9.44° C | 100% | 1019.8 hPa | - | - | - | - |
| 1777963619 | 9.44° C | 100% | 1019.6 hPa | - | - | - | - |
| 1777962118 | 8.33° C | 100% | 1019.5 hPa | - | - | - | - |
| 1777961520 | 9.44° C | 100% | 1019.3 hPa | - | - | - | - |
| 1777960019 | 7.78° C | 100% | 1019.4 hPa | - | - | - | - |
| 1777958519 | 8.33° C | 100% | 1019.3 hPa | - | - | - | - |
| 1777957019 | 8.33° C | 100% | 1019.3 hPa | - | - | - | - |
* Rain since midnight (hover to see other rain measurements)
** Current wind speed in m/s (hover to see current wind gust speed)